Content
SEND FEEDBACK

Daily
Averages
Monthly
Summary
Bosnia and Herzegovina

ILIDZA, BOSNIA AND HERZEGOVINA


Home > Europe > Bosnia and Herzegovina
Elevation: 1677 feet     Latitude: 43 49N     Longitude: 018 19E

WEATHER
 
SELECT A DAY
Number of Records: 182,511;   Date Range: 2/20/97 - 10/30/14
 
SHARE

PRINT THIS DATA

[ ← Previous Day ]
WEATHER ALMANAC - JULY 2, 2014
[ Next Day → ]
[ °C ]   °F
Weather ElementAverageHighLow
Temperature68.5 °F82.4 °F (2:30 pm)51.8 °F (1:00 am)
Dewpoint53.3 °F59 °F (11:00 am)50 °F (5:30 am)
Humidity62.5 %100 % (3:00 am)32 % (3:30 pm)
Barometer30.16 in30.21 in (7:00 am)30.12 in (10:00 am)
Wind Speed2.4 mph5.8 mph (1:30 pm)
Weather ElementAverage
Visibility6.2 mi
Wind DirectionE (91 °)

Weather ElementTotal
Precipitation---
Cooling Degree Days2.1 (Base 65)
Growing Degree Days17.1 (Base 50)
Averaged from 39 records on July 2, 2014
WEATHER CONDITIONS BREAKOUT
WIND DIRECTION BREAKOUT
WEATHER BY HOUR - JULY 2, 2014
[ °C ]   °F
Local TimeTemperatureDewpointHumidityBarometerVisibilityWind DirectionWind SpeedGust SpeedPrecipitationEventsConditions
2:00 AM53.6 °F51.8 °F94 %30.18 inSE (130°)3.5 mphClear
3:00 AM53.6 °F50.0 °F88 %30.18 inESE (120°)3.5 mphClear
4:00 AM51.8 °F50.0 °F94 %30.18 inVariable1.2 mphClear
5:00 AM51.8 °F50.0 °F94 %30.18 inVariable1.2 mphClear
5:30 AM51.8 °F50.0 °F94 %30.21 inVariable1.2 mphClear
6:00 AM51.8 °F50.0 °F94 %30.21 inVariable1.2 mphClear
6:30 AM51.8 °F51.8 °F100 %30.21 inVariable1.2 mphClear
7:00 AM53.6 °F51.8 °F94 %30.21 inVariable1.2 mphClear
7:30 AM55.4 °F51.8 °F88 %30.21 inCalmClear
8:00 AM57.2 °F51.8 °F82 %30.21 inVariable1.2 mphClear
8:30 AM60.8 °F53.6 °F77 %30.21 in6.2 miVariable1.2 mphPartly Cloudy
9:00 AM60.8 °F53.6 °F77 %30.21 in6.2 miVariable1.2 mphPartly Cloudy
9:30 AM62.6 °F51.8 °F68 %30.18 in6.2 miVariable1.2 mphPartly Cloudy
10:00 AM68.0 °F55.4 °F64 %30.18 in6.2 miVariable1.2 mphPartly Cloudy
10:30 AM68.0 °F55.4 °F64 %30.18 in6.2 miVariable2.3 mphPartly Cloudy
11:00 AM71.6 °F55.4 °F57 %30.18 in6.2 miVariable1.2 mphScattered Clouds
11:30 AM73.4 °F55.4 °F53 %30.15 in6.2 miVariable2.3 mphScattered Clouds
12:00 PM75.2 °F53.6 °F47 %30.15 in6.2 miWest (270°)3.5 mphScattered Clouds
12:30 PM75.2 °F51.8 °F44 %30.15 in6.2 miWNW (290°)3.5 mphScattered Clouds
1:00 PM77.0 °F50.0 °F39 %30.15 in6.2 miVariable2.3 mphScattered Clouds
1:30 PM78.8 °F53.6 °F42 %30.15 in6.2 miNNW (330°)3.5 mphScattered Clouds
2:00 PM78.8 °F55.4 °F44 %30.15 in6.2 miWest (260°)3.5 mphScattered Clouds
2:30 PM78.8 °F57.2 °F47 %30.15 in6.2 miNW (320°)5.8 mphScattered Clouds
3:00 PM80.6 °F53.6 °F39 %30.15 in6.2 miNNW (340°)3.5 mphScattered Clouds
3:30 PM80.6 °F51.8 °F37 %30.12 in6.2 miNorth (360°)3.5 mphScattered Clouds
4:00 PM80.6 °F50.0 °F34 %30.12 in6.2 miVariable2.3 mphScattered Clouds
5:00 PM82.4 °F51.8 °F35 %30.12 in6.2 miVariable2.3 mphScattered Clouds
5:30 PM82.4 °F51.8 °F35 %30.12 in6.2 miVariable2.3 mphScattered Clouds
6:00 PM82.4 °F50.0 °F32 %30.12 in6.2 miSSW (200°)3.5 mphScattered Clouds
6:30 PM82.4 °F51.8 °F35 %30.12 in6.2 miVariable2.3 mphScattered Clouds
7:00 PM80.6 °F53.6 °F39 %30.12 in6.2 miWest (260°)4.6 mphScattered Clouds
7:30 PM78.8 °F55.4 °F44 %30.12 in6.2 miWest (260°)3.5 mphScattered Clouds
8:00 PM75.2 °F55.4 °F50 %30.12 in6.2 miWest (270°)4.6 mphScattered Clouds
8:30 PM71.6 °F59.0 °F64 %30.12 in6.2 miSE (140°)5.8 mphScattered Clouds
9:00 PM69.8 °F57.2 °F64 %30.12 inVariable1.2 mphClear
9:30 PM68.0 °F57.2 °F68 %30.15 inVariable1.2 mphClear
10:00 PM68.0 °F57.2 °F68 %30.15 inVariable2.3 mphClear
10:30 PM64.4 °F55.4 °F73 %30.18 inVariable1.2 mphClear
11:00 PM62.6 °F55.4 °F77 %30.18 inVariable1.2 mphClear
Hourly data recorded from LQSA, located miles away from Ilidza, Bosnia and Herzegovina







STORIES FROM OUR PARTNERS